• In Schweiz
  • Länderverzeichnis
  • Für 7 Tage
  • Wassertemperatur
  • Satellitenkarten
  • Wetterkarte
  • Widgets
  • user-avatar
    Anmelden

    Stündliche Wetter Lyubyacha

    Heute, 20 September, Donnerstag

    Zeit Temperatur Niederschläge Wind Luftdruck Luftfeuchtigkeit
    00:00 +17°C° 0 mm 2 m/S 748 mmHg 84%
    01:00 +16°C° 0 mm 2 m/S 748 mmHg 85%
    02:00 +16°C° 0 mm 2 m/S 748 mmHg 86%
    03:00 +16°C° 0 mm 2 m/S 748 mmHg 87%
    04:00 +16°C° 0 mm 2 m/S 748 mmHg 88%
    05:00 +16°C° 0 mm 2 m/S 748 mmHg 88%
    06:00 +17°C° 0 mm 2 m/S 748 mmHg 85%
    07:00 +18°C° 0 mm 2 m/S 748 mmHg 82%
    08:00 +20°C° 0 mm 1 m/S 748 mmHg 78%
    09:00 +21°C° 0 mm 1 m/S 749 mmHg 72%
    10:00 +23°C° 0 mm 2 m/S 749 mmHg 66%
    11:00 +25°C° 0 mm 2 m/S 749 mmHg 60%
    12:00 +26°C° 0 mm 2 m/S 749 mmHg 58%
    13:00 +26°C° 0 mm 2 m/S 749 mmHg 56%
    14:00 +27°C° 0 mm 3 m/S 748 mmHg 54%
    15:00 +26°C° 0 mm 2 m/S 748 mmHg 57%
    16:00 +26°C° 0 mm 2 m/S 748 mmHg 61%
    17:00 +25°C° 0 mm 2 m/S 748 mmHg 65%
    18:00 +24°C° 0 mm 1 m/S 748 mmHg 69%
    19:00 +22°C° 0 mm 1 m/S 748 mmHg 74%
    20:00 +20°C° 0 mm 1 m/S 748 mmHg 78%
    21:00 +20°C° 0 mm 1 m/S 748 mmHg 79%
    22:00 +20°C° 0 mm 1 m/S 748 mmHg 81%
    23:00 +19°C° 0 mm 1 m/S 748 mmHg 82%

    Morgen, 21 September, Freitag

    Zeit Temperatur Niederschläge Wind Luftdruck Luftfeuchtigkeit
    00:00 +19°C° 0 mm 1 m/S 748 mmHg 83%
    01:00 +18°C° 0 mm 1 m/S 748 mmHg 83%
    02:00 +18°C° 0 mm 1 m/S 748 mmHg 84%
    03:00 +18°C° 0 mm 1 m/S 748 mmHg 84%
    04:00 +16°C° 0 mm 1 m/S 748 mmHg 85%
    05:00 +16°C° 0 mm 1 m/S 748 mmHg 85%
    06:00 +17°C° 0 mm 2 m/S 748 mmHg 82%
    07:00 +18°C° 0 mm 2 m/S 748 mmHg 78%
    08:00 +18°C° 0 mm 2 m/S 748 mmHg 75%
    09:00 +20°C° 0 mm 2 m/S 748 mmHg 69%
    10:00 +22°C° 0 mm 3 m/S 748 mmHg 62%
    11:00 +25°C° 0 mm 3 m/S 748 mmHg 56%
    12:00 +25°C° 0 mm 3 m/S 748 mmHg 54%
    13:00 +26°C° 0 mm 4 m/S 747 mmHg 52%
    14:00 +27°C° 0 mm 4 m/S 747 mmHg 50%
    15:00 +26°C° 0 mm 4 m/S 746 mmHg 54%
    16:00 +25°C° 0 mm 3 m/S 746 mmHg 58%
    17:00 +25°C° 0 mm 3 m/S 746 mmHg 62%
    18:00 +22°C° 0 mm 3 m/S 745 mmHg 64%
    19:00 +21°C° 0 mm 3 m/S 745 mmHg 66%
    20:00 +20°C° 0 mm 4 m/S 745 mmHg 68%
    21:00 +19°C° 0 mm 4 m/S 745 mmHg 66%
    22:00 +19°C° 0 mm 4 m/S 744 mmHg 64%
    23:00 +18°C° 0 mm 4 m/S 744 mmHg 63%

    übermorgen, 22 September, Samstag

    Zeit Temperatur Niederschläge Wind Luftdruck Luftfeuchtigkeit
    00:00 +17°C° 0 mm 5 m/S 744 mmHg 63%
    01:00 +17°C° 0 mm 5 m/S 743 mmHg 64%
    02:00 +16°C° 0 mm 5 m/S 743 mmHg 65%
    03:00 +16°C° 0 mm 5 m/S 742 mmHg 65%
    04:00 +16°C° 0 mm 5 m/S 742 mmHg 66%
    05:00 +16°C° 0 mm 5 m/S 741 mmHg 66%
    06:00 +16°C° 0 mm 5 m/S 742 mmHg 67%
    07:00 +16°C° 0 mm 5 m/S 742 mmHg 68%
    08:00 +17°C° 0 mm 6 m/S 742 mmHg 69%
    09:00 +16°C° 0 mm 6 m/S 743 mmHg 70%
    10:00 +15°C° 0 mm 6 m/S 743 mmHg 72%
    11:00 +15°C° 0 mm 6 m/S 744 mmHg 74%
    12:00 +14°C° 0.2 mm 5 m/S 744 mmHg 75%
    13:00 +13°C° 0.2 mm 5 m/S 745 mmHg 77%
    14:00 +12°C° 0.2 mm 4 m/S 745 mmHg 79%
    15:00 +12°C° 0.2 mm 4 m/S 745 mmHg 79%
    16:00 +12°C° 0.2 mm 3 m/S 745 mmHg 79%
    17:00 +12°C° 0.2 mm 3 m/S 746 mmHg 79%
    18:00 +11°C° 0 mm 3 m/S 746 mmHg 79%
    19:00 +11°C° 0 mm 3 m/S 746 mmHg 79%
    20:00 +10°C° 0 mm 3 m/S 746 mmHg 79%
    21:00 +9°C° 0 mm 3 m/S 746 mmHg 80%
    22:00 +9°C° 0 mm 3 m/S 745 mmHg 82%
    23:00 +8°C° 0 mm 3 m/S 745 mmHg 83%

    23 September, Sonntag

    Zeit Temperatur Niederschläge Wind Luftdruck Luftfeuchtigkeit
    00:00 +8°C° 0 mm 3 m/S 745 mmHg 83%
    01:00 +7°C° 0 mm 3 m/S 745 mmHg 84%
    02:00 +7°C° 0 mm 3 m/S 745 mmHg 85%
    03:00 +7°C° 0 mm 3 m/S 745 mmHg 85%
    04:00 +7°C° 0 mm 3 m/S 744 mmHg 85%
    05:00 +7°C° 0 mm 3 m/S 744 mmHg 85%
    06:00 +7°C° 0 mm 4 m/S 744 mmHg 82%
    07:00 +8°C° 0 mm 4 m/S 744 mmHg 79%
    08:00 +8°C° 0 mm 5 m/S 744 mmHg 75%
    09:00 +10°C° 0 mm 5 m/S 744 mmHg 70%
    10:00 +11°C° 0 mm 6 m/S 744 mmHg 64%
    11:00 +14°C° 0 mm 6 m/S 744 mmHg 58%
    12:00 +14°C° 0 mm 6 m/S 744 mmHg 56%
    13:00 +15°C° 0 mm 6 m/S 744 mmHg 53%
    14:00 +15°C° 0 mm 6 m/S 744 mmHg 51%
    15:00 +15°C° 0 mm 5 m/S 744 mmHg 54%
    16:00 +14°C° 0 mm 4 m/S 743 mmHg 56%
    17:00 +13°C° 0 mm 3 m/S 743 mmHg 59%
    18:00 +13°C° 0 mm 3 m/S 743 mmHg 62%
    19:00 +12°C° 0 mm 3 m/S 743 mmHg 64%
    20:00 +11°C° 0 mm 3 m/S 743 mmHg 67%
    21:00 +11°C° 0.2 mm 3 m/S 742 mmHg 72%
    22:00 +10°C° 0.2 mm 3 m/S 741 mmHg 76%
    23:00 +10°C° 0.2 mm 3 m/S 741 mmHg 81%

    24 September, Montag

    Zeit Temperatur Niederschläge Wind Luftdruck Luftfeuchtigkeit
    00:00 +10°C° 0.7 mm 4 m/S 739 mmHg 83%
    01:00 +10°C° 0.7 mm 4 m/S 738 mmHg 84%
    02:00 +9°C° 0.7 mm 5 m/S 737 mmHg 86%
    03:00 +9°C° 1.8 mm 6 m/S 736 mmHg 88%
    04:00 +10°C° 1.8 mm 7 m/S 734 mmHg 89%
    05:00 +10°C° 1.8 mm 8 m/S 733 mmHg 91%
    06:00 +11°C° 1.6 mm 8 m/S 732 mmHg 91%
    07:00 +11°C° 1.6 mm 8 m/S 730 mmHg 90%
    08:00 +12°C° 1.6 mm 8 m/S 729 mmHg 90%
    09:00 +12°C° 1.2 mm 8 m/S 728 mmHg 90%
    10:00 +14°C° 1.2 mm 7 m/S 728 mmHg 91%
    11:00 +15°C° 1.2 mm 7 m/S 727 mmHg 91%
    12:00 +13°C° 0.3 mm 8 m/S 728 mmHg 88%
    13:00 +12°C° 0.3 mm 9 m/S 728 mmHg 84%
    14:00 +11°C° 0.3 mm 10 m/S 729 mmHg 81%
    15:00 +9°C° 0.1 mm 10 m/S 730 mmHg 80%
    16:00 +8°C° 0.1 mm 10 m/S 732 mmHg 78%
    17:00 +7°C° 0.1 mm 10 m/S 733 mmHg 77%
    18:00 +7°C° 0 mm 10 m/S 734 mmHg 77%
    19:00 +7°C° 0 mm 9 m/S 736 mmHg 76%
    20:00 +6°C° 0 mm 8 m/S 737 mmHg 75%
    21:00 +6°C° 0 mm 8 m/S 738 mmHg 76%
    22:00 +6°C° 0 mm 7 m/S 739 mmHg 77%
    23:00 +5°C° 0 mm 7 m/S 740 mmHg 78%

    25 September, Dienstag

    Zeit Temperatur Niederschläge Wind Luftdruck Luftfeuchtigkeit
    00:00 +5°C° 0 mm 7 m/S 741 mmHg 78%
    01:00 +4°C° 0 mm 6 m/S 742 mmHg 78%
    02:00 +4°C° 0 mm 6 m/S 743 mmHg 79%
    03:00 +4°C° 0 mm 6 m/S 743 mmHg 79%
    04:00 +3°C° 0 mm 6 m/S 744 mmHg 79%
    05:00 +3°C° 0 mm 6 m/S 745 mmHg 79%
    06:00 +3°C° 0 mm 6 m/S 745 mmHg 77%
    07:00 +4°C° 0 mm 7 m/S 746 mmHg 74%
    08:00 +4°C° 0 mm 7 m/S 746 mmHg 71%
    09:00 +6°C° 0 mm 7 m/S 747 mmHg 65%
    10:00 +8°C° 0 mm 7 m/S 747 mmHg 60%
    11:00 +9°C° 0 mm 7 m/S 748 mmHg 54%
    12:00 +10°C° 0 mm 7 m/S 748 mmHg 52%
    13:00 +10°C° 0 mm 7 m/S 748 mmHg 49%
    14:00 +11°C° 0 mm 7 m/S 748 mmHg 47%
    15:00 +10°C° 0 mm 5 m/S 748 mmHg 52%
    16:00 +10°C° 0 mm 4 m/S 748 mmHg 56%
    17:00 +10°C° 0 mm 3 m/S 747 mmHg 61%
    18:00 +9°C° 0 mm 3 m/S 747 mmHg 66%
    19:00 +7°C° 0 mm 3 m/S 747 mmHg 70%
    20:00 +5°C° 0 mm 3 m/S 748 mmHg 74%
    21:00 +5°C° 0 mm 3 m/S 748 mmHg 78%
    22:00 +5°C° 0 mm 2 m/S 748 mmHg 81%
    23:00 +5°C° 0 mm 2 m/S 748 mmHg 84%
    Mehr zeigen